Location: Brno
(49.2000°N, 16.6330°E)
Time: 00:47:26
(UTC+02:00)

Vanguard 3 - Pass Details

Date: 07 August 2021
Orbit: 510 x 3260 km, 33.3° (Epoch: 19 September)

Event Time Altitude Azimuth Distance (km) Brightness Sun altitude
Rises 19:12:56 0° 251° (WSW) 5,261 12.4 10.0°
Reaches altitude 10° 19:16:07 10° 245° (WSW) 4,592 11.9 9.5°
Maximum altitude 19:28:57 45° 180° (S) 3,541 10.4 7.5°
Drops below altitude 10° 19:46:36 10° 117° (ESE) 6,196 11.0 4.7°
Sets 19:51:46 0° 112° (ESE) 7,190 11.3 3.9°
